Regional Weather Roundup
Issued by NWS Goodland, KS

Home | Current Version | Previous Version | Graphics & Text | Print | Product List | Glossary On
Versions: 1 2 3 4 5 6 7 8 9 10 11 12 13 14 15 16 17 18 19 20 21 22 23 24 25 26 27 28 29 30 31 32 33 34 35 36 37 38 39 40 41 42 43 44 45 46 47 48 49 50
000
ASUS43 KGLD 211108
RWRGLD

GOODLAND FORECAST AREA HOURLY WEATHER ROUNDUP
NATIONAL WEATHER SERVICE GOODLAND KS
500 AM MDT SAT APR 21 2018

...OFFICIAL OBSERVATIONS...

CITY           SKY/WX    TMP DP  RH WIND       PRES   REMARKS
GOODLAND KS    LGT RAIN  37  36  96 E12       30.13F
HILL CITY KS   LGT RAIN  41  41 100 E10       30.17F
IMPERIAL NEB   LGT RAIN  38  38 100 E8        30.18S
MCCOOK NEB     LGT RAIN  40  39  97 E8        30.19F
AKRON CO       LGT SNOW  32  32 100 E8        30.12S VSB 1
BURLINGTON CO  CLOUDY    36  35  96 E9        30.11F
LIMON CO       CLOUDY    31  31 100 E7        30.09S
$$

...UNOFFICIAL OBSERVATIONS...

CITY           SKY/WX    TMP DP  RH WIND       PRES   REMARKS
NORTON KS      DRIZZLE   39  37  93 NE7       30.17
SHARON SPRINGS   N/A     39  38  95 E10         N/A
KIT CARSON CO    N/A     36  30  80 CALM        N/A
YUMA CO        LGT SNOW  32  32 100 E7        30.14S
$$



USA.gov is the U.S. government's official web portal to all federal, state and local government web resources and services.